Theta_e
338 339 339 339 338 338 337 336 335 335 334 334 334 335 335 336 336 336 335 334 333 332 332 331 331 332 332 331 330 329 329 330 329 329 329 329 330 330 330 329 329 329 329 330 330 330 330 330 331 331 331 331 330 328 328 328 329 330 330 329 330 330 329 329 329 327 328 330 330 330 330 330 331 331 330 332 332 331 332 332 332 331 332 333 332
339 340 339 339 338 338 337 336 335 335 334 334 334 334 334 334 335 335 334 333 332 332 332 332 331 332 331 331 330 328 328 329 330 330 330 329 329 328 327 328 328 328 328 328 328 329 329 330 329 330 331 331 331 331 330 328 328 329 329 328 329 330 329 328 327 326 328 330 330 330 331 331 330 328 328 331 332 331 331 332 332 332 332 333 332
338 338 339 339 338 338 338 336 336 335 335 334 334 334 334 334 334 334 333 332 333 332 332 332 331 331 330 330 329 329 329 329 329 329 328 327 326 326 324 324 326 326 327 327 327 327 328 329 329 329 330 330 330 332 332 330 329 329 329 329 330 329 328 328 327 328 328 329 329 331 332 332 333 332 330 330 330 331 330 330 331 331 331 331 331
337 336 338 339 337 338 338 337 336 335 335 334 335 334 334 334 334 333 333 333 334 333 333 332 331 330 330 330 329 330 330 329 328 327 326 324 323 324 323 323 324 324 325 327 326 326 327 327 327 327 328 329 329 330 330 329 328 330 330 330 330 329 329 328 327 327 328 329 331 331 331 330 332 333 331 329 328 329 330 329 329 328 328 329 329
337 334 335 338 338 338 338 337 337 336 336 335 335 335 335 335 334 333 333 334 334 334 333 333 332 332 332 332 331 329 328 327 328 327 325 325 324 324 324 325 325 325 326 327 326 326 326 326 327 326 326 326 326 327 327 326 327 327 326 327 327 327 328 328 328 328 327 329 330 331 332 332 334 332 331 330 327 327 327 327 328 327 327 328 329
335 332 331 335 336 338 338 338 338 336 336 336 336 335 335 335 334 334 334 334 334 334 334 334 334 334 333 332 330 328 328 329 329 325 323 324 324 325 325 325 326 326 326 326 326 326 326 326 326 326 325 324 324 325 325 323 324 324 324 324 324 323 324 325 327 327 326 328 328 328 330 331 332 331 332 333 330 327 327 325 326 327 327 327 328
333 330 330 333 334 337 337 338 338 337 336 337 336 335 336 335 335 334 334 334 334 333 335 335 334 334 332 330 329 328 330 331 328 325 324 325 324 325 325 325 326 326 326 325 325 325 326 325 325 325 325 324 324 325 324 323 323 323 323 323 323 322 322 323 324 322 324 328 327 327 328 328 328 329 332 335 333 331 330 326 325 325 326 327 326
329 329 331 332 333 335 336 337 336 335 336 337 337 336 336 336 334 334 334 334 333 333 335 334 334 333 331 330 329 329 331 330 328 325 325 325 325 325 325 325 325 325 326 325 325 324 325 324 324 324 323 322 323 324 323 322 322 322 323 322 322 322 321 321 322 321 322 324 323 324 325 324 325 327 329 331 332 332 329 327 325 323 324 325 325
328 331 333 332 332 333 334 334 331 330 332 334 336 336 336 335 334 334 334 333 333 333 334 333 333 332 331 331 330 330 331 329 327 326 325 325 326 325 325 326 326 325 325 325 324 324 324 324 323 323 322 320 321 322 321 321 321 322 322 321 321 322 322 321 321 320 321 321 321 321 321 321 322 323 325 326 328 329 327 325 324 323 325 326 326
327 330 332 331 330 330 332 332 329 330 330 330 333 335 336 336 334 334 334 333 333 334 333 332 332 332 331 332 331 330 330 327 325 326 326 326 327 326 325 324 324 325 325 324 324 323 323 323 323 322 321 319 320 321 320 320 320 320 320 320 320 321 320 320 319 319 319 319 320 320 320 321 322 323 323 322 322 324 325 324 323 324 325 325 325
326 328 329 330 330 330 332 331 327 328 330 330 331 334 335 335 334 334 334 334 334 334 333 332 333 332 332 332 331 330 328 325 325 326 326 327 327 326 325 324 324 324 324 324 323 322 321 321 321 322 320 319 321 321 320 320 319 319 319 319 319 319 319 319 319 319 319 318 318 318 318 320 321 321 322 321 322 324 325 324 323 322 321 320 320
324 325 328 331 331 332 334 332 327 327 329 329 330 330 331 332 333 333 333 333 334 333 332 333 333 333 333 332 332 330 327 325 326 326 326 327 326 325 325 325 324 324 323 324 323 322 322 321 321 321 320 319 320 320 319 319 318 317 318 318 318 319 318 319 319 319 319 319 318 318 317 317 316 317 318 319 321 322 323 324 322 320 321 320 319
323 324 325 328 330 332 333 331 328 328 328 327 327 328 328 329 329 329 331 332 332 332 333 333 333 333 333 333 332 330 326 326 327 327 326 326 326 325 325 325 324 324 324 323 323 323 322 321 321 321 320 318 318 318 317 318 317 315 315 316 317 318 317 317 318 318 318 318 318 318 318 317 317 317 318 317 318 319 320 323 322 320 321 321 320
323 323 324 325 328 331 332 330 326 326 327 326 326 328 328 328 328 328 328 329 329 330 331 332 332 332 332 332 331 329 327 327 327 326 326 326 325 325 324 324 324 324 324 323 323 323 321 320 319 319 319 318 317 316 315 316 316 313 313 314 316 316 316 316 317 317 317 317 317 317 317 317 317 317 317 317 318 318 318 320 321 320 320 320 320
322 322 324 325 327 330 332 329 327 328 329 327 326 327 328 327 327 327 328 327 328 328 329 331 330 330 331 330 331 329 327 327 327 326 326 325 324 324 324 324 324 324 324 323 322 322 320 319 318 317 317 316 316 315 314 315 315 313 313 314 314 314 314 315 316 315 316 316 316 316 316 316 316 316 316 317 317 317 316 317 318 320 320 319 319
322 323 324 325 326 328 331 331 331 331 330 329 329 328 328 328 327 327 327 327 327 327 329 329 328 328 329 329 330 329 327 326 327 326 325 323 323 323 324 324 324 324 323 322 321 320 319 318 318 317 317 316 315 314 314 314 314 313 313 314 314 313 314 314 314 313 315 315 315 314 315 315 315 315 315 315 315 315 315 315 316 317 319 319 319
323 323 323 324 325 325 328 330 332 332 331 331 330 329 328 328 328 328 327 327 327 327 328 329 327 327 327 327 327 327 325 325 326 326 324 323 323 324 324 324 323 322 321 321 320 319 318 317 317 316 316 316 315 314 314 314 314 313 313 314 313 313 314 314 313 312 314 314 314 314 314 314 314 314 314 314 314 314 314 314 314 314 316 317 318
322 322 322 323 324 324 325 327 330 331 331 331 331 329 328 328 328 329 329 328 328 327 327 328 327 327 326 326 326 326 325 324 325 325 323 323 323 324 324 323 322 321 320 320 319 318 318 317 317 316 316 315 315 314 314 314 314 313 313 313 312 312 313 313 312 312 313 314 314 313 313 313 313 313 313 313 313 313 313 313 313 313 313 314 316
322 322 322 323 323 324 324 324 326 329 330 330 330 330 329 329 329 330 329 329 328 327 327 327 328 327 327 326 325 325 325 324 324 324 323 324 324 324 324 323 322 321 320 319 319 318 317 317 317 317 316 315 315 315 314 314 313 313 313 313 312 312 311 311 311 312 313 313 313 312 312 312 312 312 312 312 312 312 312 312 312 312 312 313 313
322 321 322 323 323 323 323 323 324 326 327 327 328 329 329 329 329 329 329 328 327 327 327 327 327 327 327 326 325 324 324 323 324 324 324 324 325 325 324 323 322 320 319 319 318 317 317 317 317 317 316 316 315 315 315 314 313 313 312 312 312 311 311 311 312 312 312 312 311 311 311 311 311 311 311 311 311 311 311 311 311 311 311 312 312
321 321 321 321 322 322 322 322 323 324 325 325 325 327 327 327 327 328 328 328 327 327 327 327 327 326 326 326 325 323 323 323 323 324 324 324 324 324 324 323 321 320 319 319 318 318 317 317 317 317 317 316 315 315 314 314 313 312 312 312 312 312 311 311 312 311 311 311 311 311 311 310 310 310 310 310 310 310 310 310 310 310 310 311 311
320 320 320 321 321 321 321 321 321 323 324 324 324 325 325 326 326 326 327 328 328 327 327 327 326 325 325 324 323 323 323 322 322 323 324 324 324 324 324 323 322 321 320 319 319 318 317 317 317 317 316 316 315 314 314 313 312 312 312 312 312 312 311 311 311 311 311 311 310 310 310 310 309 309 309 309 309 309 310 310 310 310 310 310 310
319 320 320 321 321 320 321 321 321 321 323 323 323 323 324 325 325 325 326 326 327 327 327 326 324 324 323 322 321 322 322 321 321 322 323 323 323 323 323 323 322 321 320 319 319 319 318 317 317 316 316 315 314 314 313 312 312 312 311 310 311 312 311 311 311 310 310 310 309 309 309 309 308 308 309 309 309 309 309 310 310 310 310 310 310
319 319 320 320 320 320 320 320 321 320 321 322 322 323 323 323 323 324 324 325 325 325 326 326 325 323 322 321 321 321 321 321 320 322 322 322 322 322 322 323 322 321 321 320 319 318 318 317 317 316 316 315 314 313 313 312 312 311 311 310 311 311 311 311 310 310 309 309 309 308 308 308 308 308 308 308 309 309 309 309 309 309 309 309 309
318 319 320 320 319 319 319 319 320 320 320 321 320 321 323 323 323 324 323 324 324 324 325 326 325 324 322 321 321 321 321 320 320 321 322 321 321 321 321 322 322 322 321 320 319 318 317 317 317 316 316 315 314 313 312 312 311 311 311 311 310 310 310 310 309 309 309 309 308 308 308 308 308 308 308 308 308 309 309 309 309 309 309 308 308
318 318 319 319 319 318 319 319 319 320 320 320 320 320 321 322 323 325 324 323 323 323 324 324 324 324 323 322 321 320 320 319 319 321 321 321 321 320 321 321 320 321 321 320 319 318 317 317 316 316 315 315 314 313 312 311 310 309 310 311 311 310 310 309 308 308 308 308 308 308 308 308 308 308 308 308 308 308 308 308 308 308 308 308 308
317 317 317 318 318 318 318 318 319 319 319 319 320 319 320 321 322 323 324 324 323 322 322 323 323 323 323 323 321 320 319 319 319 320 320 321 320 320 320 321 320 320 320 320 319 318 317 317 316 316 315 314 313 312 311 311 310 309 310 310 310 309 309 309 309 308 308 308 307 307 307 307 308 308 307 307 307 307 307 307 307 306 307 307 307
316 316 316 317 317 318 318 318 318 319 318 318 319 318 319 320 320 321 322 324 324 323 323 322 322 322 322 322 322 320 318 317 318 318 317 318 319 319 320 320 320 320 319 319 319 318 317 316 315 315 315 313 312 312 311 310 310 309 310 310 309 309 309 308 308 308 307 307 307 307 307 307 307 306 306 305 305 305 305 305 305 304 304 305 305
316 316 316 316 316 317 318 318 317 317 317 318 318 318 318 319 319 319 320 322 324 325 324 323 323 322 321 321 321 320 319 317 317 316 316 315 315 318 320 320 319 319 319 319 318 318 317 316 315 314 314 313 312 311 311 311 310 308 308 309 309 309 309 308 308 307 307 307 307 307 307 307 306 305 304 304 303 303 303 303 303 302 302 303 303
315 315 315 315 316 316 317 318 318 317 317 317 318 318 318 318 319 319 319 320 322 324 325 325 324 323 322 321 320 320 319 318 317 316 315 315 315 318 320 320 320 320 319 318 318 318 317 316 314 314 313 313 312 312 311 310 308 306 303 304 306 308 308 308 308 307 307 306 306 307 306 306 306 305 304 303 303 302 302 302 301 301 300 301 301
314 314 314 314 315 316 316 317 317 317 317 317 317 318 319 318 318 318 318 318 319 321 324 324 325 324 324 323 321 320 319 319 319 317 316 316 317 318 319 319 320 320 319 318 318 318 317 315 315 314 313 313 312 312 311 310 308 304 299 298 302 306 307 307 307 307 307 306 306 306 306 305 305 304 304 304 303 302 302 301 301 300 300 300 300
313 313 313 313 314 315 316 316 316 317 317 317 317 318 319 318 317 318 318 318 318 319 320 321 322 323 324 324 322 321 320 320 320 319 318 317 316 316 316 318 319 320 319 318 318 317 316 315 314 313 313 313 312 313 312 310 308 305 298 296 300 305 306 306 307 307 306 306 306 305 305 305 304 304 304 303 303 303 303 302 301 301 301 301 300
313 313 313 313 314 314 315 316 316 316 317 317 317 317 318 318 317 317 318 318 318 317 317 318 318 320 322 323 324 323 321 321 321 320 319 319 317 316 314 316 318 319 318 318 317 316 315 315 314 313 313 313 313 313 312 310 308 305 299 296 299 302 304 306 307 306 306 306 305 305 304 304 304 304 304 303 303 303 303 302 302 301 302 302 302
313 314 313 313 314 314 314 314 314 315 315 315 316 316 317 317 317 317 317 318 318 317 317 317 317 317 318 320 323 323 322 322 322 321 321 320 320 318 317 317 318 319 319 318 316 315 315 314 313 313 313 313 313 313 311 309 308 305 299 296 298 300 303 306 307 306 305 305 305 304 304 304 304 304 304 303 303 302 302 301 301 301 303 304 304
313 313 314 314 314 314 314 314 313 313 314 314 314 315 315 315 316 317 317 317 318 318 317 317 318 317 316 316 319 321 321 322 322 322 321 321 321 321 320 319 319 319 318 318 316 315 315 314 314 313 313 313 312 312 310 309 308 305 300 296 296 298 302 306 306 305 305 304 304 304 304 304 304 304 304 303 302 302 301 300 300 302 303 304 304
312 313 314 314 313 313 313 313 313 313 313 313 313 313 314 314 314 315 316 316 317 318 317 317 318 318 317 316 317 318 319 320 321 322 322 321 321 320 320 319 319 318 318 318 316 316 315 314 314 314 314 313 312 311 310 308 308 306 300 296 296 299 303 306 306 305 305 304 304 304 304 304 304 303 303 303 302 301 300 299 300 302 304 304 304
312 312 313 313 313 313 312 312 312 312 312 312 312 312 313 313 313 313 314 314 315 317 318 317 317 317 317 317 317 317 318 319 320 321 321 321 320 320 319 319 319 318 318 317 316 315 315 314 314 313 313 313 312 311 310 308 308 306 300 295 296 301 305 306 305 305 305 304 304 304 304 304 303 303 303 302 302 301 300 299 300 302 303 304 305
311 312 312 312 312 312 312 311 311 311 311 311 311 311 312 312 312 313 313 313 314 315 315 316 317 317 317 317 317 317 317 317 318 320 321 320 319 319 319 319 318 317 316 316 316 315 314 313 312 313 313 313 312 311 310 308 307 306 300 295 297 303 306 306 306 305 305 305 305 305 305 304 303 303 303 302 302 301 298 298 300 301 301 302 304
312 313 312 311 311 311 310 310 310 310 310 309 309 309 310 311 312 312 312 313 313 313 313 314 315 315 317 317 316 316 315 315 316 318 319 320 320 319 318 318 317 317 316 315 315 314 313 313 313 314 314 313 312 311 310 308 307 306 300 294 296 302 306 306 306 306 305 305 305 305 305 304 303 303 302 302 302 299 295 294 296 298 299 300 302
312 313 311 310 311 310 309 309 310 309 309 309 308 308 309 310 310 311 311 312 312 312 313 313 313 314 316 316 316 315 315 315 315 316 317 319 320 320 318 318 317 316 316 315 314 314 313 313 313 314 314 313 312 311 310 308 307 306 301 294 294 301 305 307 307 306 306 306 305 305 305 304 303 302 301 301 299 296 293 291 291 293 297 300 302
312 312 311 310 310 309 309 309 309 309 309 308 308 308 308 309 309 309 309 310 310 311 312 312 313 313 314 314 315 315 316 316 316 315 316 318 320 320 319 319 318 317 316 315 314 313 313 313 313 313 313 313 312 311 310 308 307 306 302 296 294 299 305 306 307 307 306 306 306 305 306 305 303 302 301 300 299 296 293 290 288 290 293 297 297
311 311 310 310 310 309 309 309 309 309 309 309 308 308 309 308 308 308 308 308 308 309 310 311 312 312 312 313 313 314 315 316 316 316 316 317 319 319 319 319 318 317 316 315 315 314 313 313 312 313 313 312 311 310 310 308 306 305 303 297 293 296 301 305 306 307 307 306 305 305 306 305 303 303 302 301 300 297 292 289 288 288 290 291 290
310 310 310 310 309 309 309 309 309 309 309 309 309 309 309 309 308 308 308 307 307 308 309 310 311 311 312 312 312 312 313 314 315 317 317 317 317 317 318 318 318 318 317 316 315 314 313 313 312 312 312 312 311 309 308 308 307 306 304 299 294 293 298 303 305 306 306 305 305 305 305 304 303 302 301 300 298 294 290 288 288 288 288 288 289
310 310 309 309 309 309 309 309 309 308 308 308 308 309 309 309 308 308 307 307 307 307 308 309 311 311 311 312 311 312 312 312 313 315 317 317 316 316 316 316 316 316 316 316 315 314 313 312 312 311 310 310 310 309 308 308 307 306 305 301 296 292 295 300 304 304 304 303 303 303 303 302 302 301 300 300 298 293 289 287 288 288 288 288 291
310 310 309 309 309 309 309 308 308 308 308 308 308 308 308 308 308 307 306 307 307 307 307 309 310 310 311 311 311 311 311 311 311 313 315 316 316 315 315 315 316 316 315 315 314 314 313 312 312 311 310 309 309 309 309 308 307 305 305 303 298 293 294 297 300 302 302 301 301 301 301 301 300 300 300 300 298 293 289 288 288 290 290 291 294
310 310 309 308 308 308 308 308 308 308 308 308 307 307 308 308 307 306 306 306 306 306 307 308 309 310 310 311 311 311 311 311 311 312 313 314 315 315 315 314 314 315 315 314 314 314 313 313 312 311 310 310 309 309 309 308 306 306 306 305 299 294 293 294 295 298 299 299 299 299 299 299 300 300 299 298 294 291 290 291 291 292 293 294 296
310 309 308 307 307 307 307 307 307 307 307 307 307 307 307 307 306 306 306 306 306 307 308 308 309 309 309 310 310 311 310 310 310 311 312 313 314 315 315 314 313 314 314 314 314 313 313 313 312 312 311 310 310 310 309 307 307 306 306 304 299 295 293 293 294 294 295 296 296 296 297 297 298 297 296 293 290 288 290 291 291 293 295 296 297
308 307 307 307 307 307 307 307 307 307 307 306 306 306 306 306 306 306 306 306 307 308 308 308 308 309 309 309 309 310 310 310 310 310 311 311 312 314 315 315 313 313 314 314 314 313 313 313 312 312 311 311 310 310 308 307 306 306 305 304 300 295 292 292 293 293 293 292 292 293 294 294 294 293 291 289 288 288 290 291 293 295 297 297 298
306 306 306 306 306 306 306 306 306 306 306 306 306 306 306 306 306 306 306 306 307 307 307 308 308 308 308 309 309 310 310 310 310 310 310 310 311 312 314 314 314 314 314 313 313 313 313 313 312 312 312 311 310 310 309 307 306 306 305 304 302 298 294 291 291 292 292 292 292 293 295 295 293 292 291 290 290 291 293 295 296 297 298 297 298
305 305 305 305 305 306 306 306 306 306 306 305 306 306 305 305 305 305 306 306 307 307 307 307 307 308 308 309 309 310 310 309 309 310 309 310 310 310 310 311 313 314 314 313 312 312 313 313 313 312 312 311 311 310 309 308 307 306 305 304 304 301 296 292 291 292 292 293 295 296 298 298 296 295 295 295 295 296 297 298 299 299 298 297 297
304 304 304 305 305 305 306 305 305 305 305 305 305 305 305 305 305 306 306 306 307 307 307 307 307 307 308 308 309 309 309 309 309 309 310 310 310 308 306 306 308 310 312 313 312 313 313 313 313 312 312 311 310 310 309 308 307 306 305 304 302 300 296 293 293 293 292 294 297 300 299 299 299 298 299 299 299 299 299 299 299 299 299 298 297
Wind_Speed
16 18 18 16 14 15 18 17 16 16 15 16 15 13 13 14 13 13 12 11 11 11 10 9 9 9 8 7 7 7 7 7 6 7 7 6 6 5 6 5 4 5 3 3 3 3 3 3 3 2 2 1 2 4 5 4 3 3 3 3 3 3 4 5 6 7 8 8 8 9 11 10 8 8 8 8 8 7 7 10 11 11 15 18 18
17 16 16 17 15 14 16 17 17 17 16 16 16 15 14 14 14 14 13 13 12 12 11 10 9 9 9 8 9 8 7 7 8 7 6 6 6 5 5 4 4 4 3 3 4 3 3 3 3 3 2 2 2 3 3 4 3 2 1 2 2 3 3 4 6 5 3 5 6 7 9 9 9 8 6 6 6 5 6 9 10 11 16 18 18
8 13 15 16 15 14 14 15 16 17 17 17 16 16 15 15 15 14 14 14 13 13 12 11 11 10 9 9 9 9 8 9 10 8 7 7 6 5 5 5 4 4 3 4 5 5 4 4 4 4 4 4 3 3 3 4 4 3 3 2 3 4 4 4 4 3 2 3 4 3 3 5 6 6 6 7 6 5 6 8 7 9 15 16 15
5 2 10 11 13 13 12 14 16 17 18 17 17 18 17 17 16 15 15 15 13 14 13 12 11 10 9 9 8 9 8 9 9 8 7 7 6 6 5 5 5 5 5 5 5 5 5 5 5 5 5 5 5 5 5 5 5 4 5 4 5 5 5 4 4 2 2 3 1 0 1 1 3 4 8 11 9 5 6 8 8 10 13 14 12
4 4 2 4 8 11 12 12 14 17 18 18 19 19 18 18 18 17 17 15 14 14 13 12 12 11 11 10 9 10 10 9 9 9 8 8 7 7 6 6 6 6 6 6 6 6 5 6 5 5 6 5 6 6 5 6 5 5 6 6 6 7 6 6 5 4 3 1 1 2 1 1 2 3 6 8 9 8 7 9 11 12 14 12 11
2 2 1 3 6 8 11 14 14 14 16 19 20 19 18 19 19 18 17 16 15 16 14 14 14 12 12 12 10 11 11 11 11 10 9 9 9 8 8 7 7 7 6 6 6 6 6 6 6 6 5 5 6 6 5 5 5 6 7 6 6 7 6 6 6 6 4 2 1 1 2 2 3 3 3 3 8 9 7 10 12 13 16 14 12
4 4 2 6 6 7 9 12 15 16 16 17 18 19 18 19 19 19 18 16 16 16 15 15 15 14 13 12 12 12 12 12 12 10 10 11 11 10 10 9 7 7 7 6 6 6 5 5 5 5 5 5 4 5 5 5 5 6 6 6 6 6 6 6 6 8 6 3 3 3 4 5 6 5 3 2 4 5 6 11 12 12 14 14 15
1 1 2 4 5 7 9 10 10 10 13 16 17 17 18 19 19 19 17 16 17 17 17 16 16 15 15 14 13 13 13 13 12 11 11 11 11 10 10 10 8 7 7 6 5 5 5 4 4 5 4 4 3 4 5 5 5 5 5 5 5 5 5 5 5 7 6 5 5 4 5 7 8 10 11 8 4 2 6 9 11 12 12 12 13
8 4 2 4 7 8 6 7 4 8 6 7 11 15 16 17 19 18 17 16 16 17 17 16 16 15 15 15 14 13 13 13 12 11 11 12 11 11 10 10 10 9 7 6 5 5 4 3 3 4 3 3 4 5 5 4 4 4 4 4 5 4 4 4 5 5 7 7 7 7 7 7 8 9 10 9 5 3 3 4 8 10 9 12 13
9 7 5 7 13 16 9 5 10 9 7 7 9 12 14 15 17 17 16 16 16 17 17 16 15 15 15 14 13 13 14 14 13 12 12 12 12 11 10 10 10 10 9 7 6 5 4 3 3 4 3 4 4 4 4 4 4 4 5 4 4 4 4 3 4 4 5 6 7 8 8 8 7 6 8 9 7 5 4 4 8 9 6 7 9
8 8 8 8 11 12 7 3 13 17 16 15 14 14 15 15 16 16 15 14 15 16 17 16 15 14 14 14 13 13 15 15 15 14 13 13 12 12 11 10 9 10 10 9 7 5 5 4 4 4 3 4 4 4 4 4 4 4 4 4 4 4 4 4 3 3 4 5 6 7 8 9 8 6 9 10 7 4 4 3 8 11 10 12 12
7 7 7 6 7 6 4 1 5 11 9 7 7 8 8 8 9 13 14 15 15 16 16 15 15 14 13 13 13 13 15 16 16 15 15 14 13 13 12 11 10 10 9 9 8 7 6 5 5 3 2 3 3 4 4 4 4 5 5 5 4 4 5 5 5 5 5 5 5 6 7 8 8 8 10 10 8 7 6 3 6 10 10 10 14
6 6 6 6 6 5 5 3 1 5 8 11 12 11 9 8 7 9 11 11 13 15 16 15 15 14 13 13 13 13 15 16 16 16 15 15 15 14 13 13 12 11 10 9 9 8 7 6 5 4 3 3 3 4 4 4 4 5 6 6 6 5 5 6 5 6 7 6 6 6 6 6 8 9 10 10 10 10 8 4 6 9 8 8 12
8 6 7 7 8 7 5 5 4 4 5 10 12 10 9 9 8 10 13 14 12 12 13 14 15 14 13 13 13 14 15 15 15 15 16 16 15 15 14 13 13 12 11 10 9 9 8 7 7 6 5 4 3 3 4 3 4 5 6 6 6 6 6 6 6 7 7 7 7 7 6 7 8 8 9 9 8 8 9 7 6 8 9 9 10
7 8 7 7 10 10 6 2 5 3 4 10 14 13 13 13 11 11 14 15 15 14 14 14 14 14 14 15 14 13 14 15 14 15 16 16 16 15 15 14 13 12 11 11 10 10 9 8 8 7 7 5 4 3 3 3 3 6 6 5 6 6 7 6 6 7 8 8 8 8 7 8 8 7 7 8 7 7 10 10 7 5 6 7 6
5 7 7 7 11 11 7 2 2 0 2 6 9 11 13 14 11 10 11 13 14 14 13 12 12 12 13 13 13 12 13 14 14 15 16 16 16 16 15 15 14 13 12 12 11 10 10 9 9 8 7 6 4 3 3 2 3 5 5 5 6 6 6 6 7 8 8 8 8 8 8 8 9 8 7 9 8 7 8 10 10 6 4 4 3
7 7 7 8 11 11 9 4 2 2 1 2 4 6 8 11 12 11 11 11 11 11 11 11 13 13 13 13 13 12 13 14 15 15 16 16 16 16 16 15 15 14 13 12 11 11 10 9 9 9 8 6 5 3 2 2 3 4 5 5 6 6 6 6 7 7 7 8 8 8 8 9 9 8 8 9 9 7 7 10 12 11 8 5 3
9 9 9 10 11 11 11 8 5 4 2 1 2 3 4 6 7 8 9 9 11 12 12 13 16 19 17 15 15 14 13 15 15 15 16 16 17 17 16 16 16 16 14 13 12 11 10 10 9 9 8 7 5 3 2 1 1 3 4 4 5 5 5 5 7 7 7 7 7 7 8 9 9 9 9 10 9 8 8 9 10 10 10 8 5
9 9 8 9 11 11 11 10 8 7 5 3 3 4 4 4 4 4 7 10 12 14 14 14 18 21 19 17 18 16 15 16 17 16 16 17 17 17 17 17 17 16 15 14 13 12 11 10 9 9 8 7 6 4 2 1 1 3 3 3 4 5 5 5 6 5 5 6 6 6 7 8 8 9 9 8 8 9 9 10 10 10 10 10 10
8 9 8 8 11 12 12 11 9 9 10 8 7 7 6 5 4 4 7 11 12 12 12 13 18 22 21 18 18 20 19 19 19 18 18 18 18 17 17 18 17 16 16 15 14 12 11 10 9 9 8 7 6 4 3 2 1 2 2 3 4 4 4 5 5 4 5 6 6 6 6 7 8 9 9 7 7 9 9 10 11 12 11 11 12
7 8 8 9 12 14 13 12 10 9 12 12 11 10 7 7 6 4 7 10 8 7 9 10 12 17 18 17 17 18 19 20 20 19 19 18 18 17 17 18 17 16 16 15 14 13 11 11 10 9 8 7 6 5 4 3 1 2 3 3 3 3 3 4 4 4 5 5 5 6 6 6 7 8 8 8 8 9 8 9 10 11 12 11 12
7 8 8 9 12 14 14 14 12 10 10 10 12 11 9 7 6 5 6 7 6 5 7 8 10 12 12 10 13 15 17 19 17 17 19 18 17 17 17 17 17 16 16 15 14 13 12 11 10 9 8 7 6 5 4 3 2 2 2 2 2 2 3 4 4 4 5 5 4 5 6 6 6 7 8 8 9 9 9 10 10 10 12 12 11
8 8 9 10 12 13 14 16 16 14 11 9 9 10 10 9 6 5 6 6 6 6 6 7 10 13 10 8 11 13 13 15 14 14 17 17 16 17 17 16 17 16 16 15 14 13 12 11 10 10 9 8 6 5 4 3 2 2 1 2 3 3 3 4 4 4 5 5 5 5 6 7 7 8 9 9 9 10 9 10 11 11 13 14 13
8 8 8 10 11 12 13 14 15 16 15 13 11 10 9 9 8 7 7 6 6 6 6 6 9 12 13 13 12 11 9 11 12 12 16 17 17 17 17 16 16 16 15 15 14 13 12 11 10 10 9 8 7 6 5 4 4 3 2 2 2 3 3 4 5 5 6 6 6 6 6 6 7 7 8 9 8 8 8 8 10 11 11 13 14
8 8 7 8 10 11 12 13 13 14 14 15 14 12 10 9 8 7 7 6 5 6 7 6 7 9 12 15 15 12 10 12 13 10 12 16 17 16 17 17 16 16 15 14 14 13 12 11 10 10 9 9 8 7 6 4 4 3 3 3 2 3 3 4 5 5 6 7 7 7 7 6 6 7 7 8 8 8 8 8 9 10 11 12 13
8 7 6 7 8 10 12 13 14 14 13 14 15 13 11 10 9 7 6 6 5 5 6 6 7 7 9 13 16 16 15 18 19 13 11 13 13 12 14 15 15 15 15 14 12 13 13 12 11 10 9 9 9 8 6 5 4 3 3 3 3 3 3 4 5 6 6 7 7 7 8 8 7 7 6 5 6 6 5 5 7 9 10 10 11
8 7 7 7 7 9 11 12 13 14 14 15 15 14 12 10 9 8 6 5 5 5 7 8 8 8 9 10 14 18 20 22 21 17 15 13 11 12 13 13 12 11 13 15 12 11 12 12 11 11 11 9 8 7 6 5 4 4 4 3 2 3 4 5 5 6 6 6 6 6 7 6 5 4 2 2 3 4 3 3 4 7 9 10 10
9 9 9 9 9 9 10 13 14 14 15 15 15 15 14 11 9 8 6 4 5 6 7 9 9 10 11 12 14 17 21 23 21 21 21 19 17 15 15 16 15 12 11 14 14 12 12 13 12 11 12 10 8 7 7 7 5 4 4 3 3 4 5 5 6 6 6 6 7 6 5 4 3 3 3 4 5 5 5 4 3 5 9 11 10
9 10 10 10 10 10 12 14 15 15 16 15 15 15 15 14 12 12 9 5 4 6 8 8 9 11 13 13 14 16 20 23 23 24 26 26 24 20 18 18 19 17 14 14 15 15 15 16 14 10 10 11 10 8 8 9 7 5 4 3 3 4 4 6 7 7 6 6 7 6 5 4 5 7 8 8 7 6 6 5 5 5 7 9 10
10 10 10 10 10 11 13 15 16 17 16 15 15 16 16 16 15 16 15 10 5 5 8 9 10 11 13 13 14 15 18 21 23 25 25 25 24 22 19 18 18 18 18 16 16 17 16 16 16 12 11 12 12 12 11 11 10 7 6 5 4 3 5 7 7 7 7 6 6 7 7 6 6 7 8 7 5 4 4 5 5 5 5 7 7
10 10 10 10 10 12 13 15 16 17 17 17 16 16 16 17 16 16 18 17 14 10 8 9 10 11 11 12 14 16 17 19 22 24 24 24 24 21 19 19 18 19 19 18 18 17 14 12 14 13 13 13 14 14 15 13 11 8 6 6 6 4 5 7 7 7 7 6 6 7 6 7 7 6 6 5 4 4 4 4 4 3 4 5 5
10 10 10 10 10 11 13 15 16 17 17 17 17 17 17 17 17 17 19 20 21 19 15 13 12 11 11 12 14 15 18 20 21 22 24 25 24 22 20 19 19 21 21 19 19 18 14 12 13 13 14 16 16 15 15 14 12 8 5 5 6 6 5 7 8 8 7 6 6 6 6 6 6 5 5 5 5 6 5 5 5 5 6 7 7
10 10 10 10 11 12 13 14 16 17 17 17 17 16 16 17 17 17 18 18 18 20 20 20 19 17 13 12 14 14 16 19 21 22 22 23 23 23 24 22 21 21 22 21 20 19 16 15 16 15 14 16 18 17 16 15 12 8 4 4 6 6 6 8 8 7 7 6 6 6 7 6 6 5 5 4 5 5 5 5 7 9 10 10 10
9 9 10 10 12 13 13 13 15 16 16 17 17 16 17 18 16 15 16 15 15 17 18 20 21 22 20 17 11 12 13 14 16 18 20 21 22 23 25 26 23 22 23 24 22 21 19 18 19 17 15 15 17 17 16 15 12 7 4 4 5 7 7 8 8 7 6 6 6 7 7 6 6 6 5 5 4 3 5 6 8 12 13 11 8
9 8 9 11 13 13 14 14 14 15 15 16 17 17 18 18 17 16 15 13 13 14 15 17 18 18 19 21 16 9 9 9 10 12 14 17 20 21 23 24 23 23 24 25 25 23 22 20 19 18 16 15 15 16 16 16 12 7 5 4 5 7 8 8 7 7 6 7 7 7 7 6 6 7 7 7 6 6 8 8 8 11 12 8 7
8 8 9 11 12 14 15 15 15 16 15 16 16 17 17 17 18 17 16 15 13 11 11 13 15 16 18 20 17 11 10 10 9 9 10 14 17 18 19 19 21 23 24 25 25 24 24 23 21 19 17 15 14 16 17 16 12 7 6 6 6 7 9 9 8 7 6 7 8 8 8 7 7 9 9 8 7 7 8 8 8 9 9 7 8
10 10 11 13 13 14 15 14 15 16 16 16 17 17 17 17 18 17 17 18 16 13 12 13 14 16 17 18 16 13 11 12 13 11 10 11 12 14 16 18 19 21 22 25 26 25 26 26 24 21 18 15 14 15 17 16 12 9 7 7 7 8 9 10 10 8 7 8 9 9 9 8 9 11 11 9 8 7 7 6 7 8 8 8 8
12 11 11 13 14 15 15 14 15 16 16 18 19 18 17 17 18 18 18 18 17 17 17 16 15 16 15 14 14 12 11 14 15 12 10 10 9 10 13 17 19 20 21 24 26 24 22 23 24 22 19 17 16 16 17 16 13 10 9 8 8 9 11 12 11 9 9 10 11 11 10 10 10 12 11 9 8 7 6 5 6 7 8 9 7
10 9 10 12 13 15 15 14 14 14 14 16 17 18 19 18 18 19 19 18 19 19 19 18 19 19 14 12 15 14 12 15 16 13 10 11 10 10 12 15 17 19 21 23 24 24 22 22 22 21 20 19 18 17 18 17 15 12 11 11 11 11 12 14 12 10 11 13 13 13 14 13 12 12 11 10 9 9 8 7 7 7 8 9 8
10 9 10 11 10 12 13 12 13 13 14 14 13 13 15 16 17 18 19 20 21 20 20 20 20 20 16 13 17 19 16 12 12 14 14 11 10 11 13 14 15 16 19 21 23 24 25 25 24 21 19 19 19 18 17 17 16 14 12 12 13 13 12 12 11 11 13 15 15 16 17 17 15 13 11 11 10 10 10 10 9 9 9 10 12
11 10 10 11 12 14 14 15 18 19 20 21 18 16 16 14 14 16 19 21 23 22 21 20 20 20 19 17 17 19 17 13 11 12 14 12 11 12 13 14 15 15 17 21 22 23 24 25 25 24 21 19 20 20 19 17 16 15 14 14 16 16 12 10 10 10 11 12 14 17 19 19 17 14 12 10 10 10 11 12 11 10 11 13 15
10 10 12 13 14 16 17 18 19 20 21 22 22 23 22 17 15 16 18 21 24 24 23 21 19 19 19 19 18 16 15 15 13 11 11 12 11 11 12 14 16 17 17 20 21 22 23 24 24 24 22 21 22 22 20 18 17 16 17 17 17 18 16 12 9 7 7 7 8 12 16 17 16 14 11 10 10 12 13 13 12 11 12 12 12
11 12 14 14 14 16 17 18 18 18 20 20 20 21 22 20 19 19 18 19 22 24 24 22 19 19 20 21 21 19 15 14 14 12 12 12 11 12 12 13 15 15 16 17 19 21 23 23 22 21 20 21 23 21 19 18 18 19 18 18 18 18 18 16 11 6 4 4 3 6 10 13 13 11 9 9 10 13 14 14 12 11 10 9 8
12 13 15 15 15 15 16 17 17 16 17 19 19 19 19 19 22 23 21 19 21 24 25 23 19 18 20 22 23 23 19 16 13 13 12 11 10 11 12 13 14 14 14 15 16 19 21 22 22 21 20 21 22 20 18 19 20 20 19 18 18 19 19 19 17 11 6 5 3 3 6 9 9 8 8 9 12 14 15 13 11 8 6 7 6
13 14 15 15 15 16 17 18 18 17 17 17 18 19 19 19 21 23 23 21 21 23 25 23 19 18 21 22 23 24 23 20 16 14 13 14 12 10 11 12 13 15 16 16 16 16 18 20 22 23 24 24 22 20 21 22 22 20 19 19 19 20 21 21 20 17 12 9 7 5 5 7 7 8 9 12 15 16 14 11 8 6 5 6 6
14 14 15 16 16 16 18 19 18 18 18 18 18 19 19 20 21 22 22 21 21 23 24 21 19 19 20 21 22 23 23 21 18 16 16 16 15 11 10 11 13 15 16 17 17 18 18 19 20 21 24 24 23 23 25 25 23 21 20 20 20 20 21 23 23 21 18 15 13 12 11 10 10 11 13 14 16 15 13 10 8 7 7 7 6
13 14 16 17 16 17 19 18 18 18 18 20 20 19 19 20 21 22 23 22 23 22 21 20 20 20 20 20 21 23 22 20 18 17 17 16 15 12 9 10 12 15 16 16 16 17 18 18 18 19 22 23 24 24 25 25 25 24 21 21 21 21 22 23 24 23 22 19 17 16 16 15 14 15 16 16 15 14 14 12 10 9 9 7 6
14 17 18 17 17 18 18 18 18 18 19 20 20 19 19 20 21 22 23 23 22 21 21 21 21 21 21 21 20 21 21 20 18 17 17 17 15 12 11 12 13 15 17 17 16 17 19 20 19 19 20 21 24 25 25 25 28 27 23 22 23 24 24 24 24 24 23 21 19 18 17 16 15 15 16 15 15 14 13 13 12 12 11 8 7
17 18 18 18 17 18 18 17 17 18 19 20 20 20 20 20 21 22 22 21 20 21 22 22 21 20 21 21 20 20 21 20 20 19 18 18 17 14 14 16 17 16 18 20 20 20 21 21 21 21 20 20 22 24 25 25 26 25 23 23 24 24 24 25 25 23 20 17 16 16 15 14 13 13 13 13 13 13 13 13 13 13 12 10 9
18 18 18 19 18 17 17 17 18 18 19 20 20 20 20 20 20 21 20 20 20 21 21 20 20 19 20 21 20 20 20 19 19 20 19 17 18 19 20 19 16 16 18 21 23 24 23 20 20 21 21 22 23 24 23 23 23 23 23 23 22 20 21 23 22 21 18 15 15 17 15 13 12 13 13 14 16 17 18 17 16 15 13 10 10
16 16 17 17 16 16 16 17 18 18 18 19 20 20 19 19 19 20 19 19 19 20 20 20 20 20 21 21 20 19 20 20 19 18 17 16 17 21 25 24 19 16 16 18 21 23 24 23 22 22 22 23 24 24 21 21 23 23 23 22 20 18 17 17 17 17 19 18 17 17 16 15 15 16 17 18 18 18 17 15 14 14 12 10 9
Wind_Direction
130 136 141 145 148 146 143 143 143 145 151 154 155 157 155 153 150 147 149 149 145 145 142 142 144 142 141 139 135 130 124 122 112 105 105 103 99 96 96 95 96 92 81 78 71 69 78 84 92 80 86 104 41 55 71 79 80 52 17 10 12 354 346 359 357 350 348 336 326 331 324 305 294 292 287 285 279 265 266 271 259 236 233 242 249
129 136 142 145 150 154 149 147 150 150 155 160 161 162 161 160 158 157 159 159 156 155 156 156 157 155 154 153 148 140 139 142 131 118 118 114 104 101 105 105 105 101 96 99 93 87 85 82 76 61 58 51 36 54 61 59 69 64 10 351 356 345 335 345 336 331 357 352 336 331 330 318 303 303 297 295 301 288 277 273 264 243 236 245 254
121 137 145 149 154 158 151 151 155 155 159 166 168 167 166 166 166 167 167 167 167 165 165 164 164 164 161 159 152 143 140 137 132 130 129 124 113 108 108 105 105 103 102 106 97 86 81 81 75 64 56 43 39 52 52 45 43 43 41 30 13 2 356 356 339 311 290 320 337 329 339 333 313 323 334 326 330 324 291 267 258 256 247 249 255
344 132 139 144 154 160 158 160 162 160 164 171 174 172 171 172 173 174 174 174 175 172 171 169 165 163 159 156 149 145 140 130 131 135 132 127 117 111 108 100 100 101 96 98 98 91 87 83 77 72 65 53 51 55 56 47 42 46 44 34 25 19 11 7 8 2 313 295 329 105 82 325 281 340 341 323 326 335 308 287 287 287 268 260 258
294 302 71 135 170 170 169 170 172 170 171 175 178 176 174 174 176 178 178 178 178 175 174 170 163 159 156 152 145 142 144 146 147 143 143 142 126 115 114 110 106 104 97 97 98 93 90 85 77 77 72 65 61 57 59 54 45 53 53 43 35 29 14 358 4 16 3 311 201 194 161 193 236 339 331 315 324 329 316 303 297 292 286 279 261
192 253 338 230 202 189 184 179 179 180 181 178 177 179 177 176 177 178 181 180 179 177 174 170 167 163 161 159 155 153 158 170 167 159 159 153 139 130 123 119 115 112 107 103 100 93 92 88 80 79 72 71 71 60 57 54 44 47 46 37 31 28 16 2 4 9 356 314 341 293 227 228 242 313 325 303 318 318 310 304 297 286 285 286 274
199 181 200 231 200 196 207 194 187 188 188 182 178 181 180 178 178 179 183 183 181 181 177 173 171 170 171 173 172 172 174 176 171 165 163 151 146 145 134 127 123 118 114 108 104 97 92 87 82 82 74 66 70 72 68 54 44 45 41 34 30 26 23 15 7 5 349 317 353 335 272 268 258 253 250 271 317 317 306 298 294 285 280 284 282
356 168 199 241 208 201 213 211 212 206 192 184 181 183 183 180 180 181 183 184 182 183 180 179 178 177 181 184 185 186 180 168 162 161 159 154 153 151 142 136 132 128 125 117 109 101 95 90 84 83 79 63 58 80 78 57 46 43 38 44 41 32 30 18 2 1 357 349 356 345 318 308 282 255 245 247 249 271 300 296 290 285 271 264 269
49 42 19 343 336 308 252 202 245 311 290 226 197 188 188 185 182 184 185 185 185 185 184 185 185 184 189 192 190 188 175 162 162 163 162 162 160 157 153 149 145 140 135 126 118 111 102 95 90 84 80 69 55 63 66 49 47 46 37 42 37 35 37 24 11 5 356 351 349 344 338 328 310 288 275 274 276 284 294 288 296 296 269 247 246
52 45 28 10 353 344 347 167 199 236 246 246 234 208 198 191 186 189 188 185 186 187 189 192 192 193 196 197 192 180 165 163 170 171 170 168 166 165 163 159 152 146 144 138 131 127 116 104 99 86 75 75 58 50 56 47 46 44 36 33 26 26 25 12 9 359 347 344 341 339 337 328 323 322 324 332 336 335 332 318 326 334 323 290 265
52 44 33 16 1 356 2 165 207 221 205 198 217 219 210 200 192 193 192 189 188 189 193 197 198 200 201 200 195 180 168 171 175 174 175 175 172 171 167 163 160 156 154 147 140 137 128 115 102 89 77 74 59 47 52 47 45 37 21 19 16 13 4 353 359 357 349 346 339 339 338 335 337 323 321 331 333 334 344 338 334 332 329 326 317
65 61 53 28 15 1 336 114 213 252 248 232 267 282 265 244 216 208 202 194 190 190 198 203 204 205 205 205 202 188 178 180 181 178 180 180 177 175 171 169 166 163 161 152 148 144 133 124 110 101 96 79 61 52 50 41 41 25 4 3 2 357 351 348 353 346 337 333 329 334 331 326 328 320 323 338 342 339 338 316 313 316 315 317 318
29 53 58 39 36 26 351 22 186 272 309 322 324 325 308 299 285 262 247 229 209 197 199 207 210 210 209 209 206 195 189 190 188 185 186 183 179 177 174 172 169 167 167 161 157 153 144 141 133 118 100 83 65 55 47 32 29 18 3 358 354 353 349 341 338 331 325 323 316 316 318 318 322 326 335 344 342 336 329 309 305 313 314 316 317
355 11 34 34 34 44 36 5 321 285 291 282 275 272 269 256 239 237 239 241 240 226 217 217 219 219 216 215 212 202 199 199 195 191 191 186 182 180 176 176 175 173 172 167 162 160 155 150 145 137 123 105 86 63 47 28 20 18 7 356 353 351 340 330 326 322 317 315 311 304 307 315 319 323 328 326 324 326 329 337 342 331 324 319 312
359 354 10 32 37 52 75 350 310 264 242 259 261 260 255 245 240 236 229 227 227 228 232 231 228 230 225 219 217 211 208 207 203 198 195 188 184 182 179 179 179 175 173 168 165 164 161 155 148 141 136 127 110 80 58 34 15 14 6 354 351 342 331 330 328 323 317 310 309 307 306 305 303 306 311 312 318 332 342 348 349 334 319 314 309
6 352 358 23 32 46 74 61 337 248 237 258 260 254 246 244 253 264 259 246 230 227 242 244 237 252 256 239 228 223 216 214 212 205 196 191 187 184 181 180 178 174 171 168 167 166 161 159 154 147 142 137 127 107 68 34 9 7 0 346 344 336 329 333 329 322 317 314 314 312 308 305 305 311 313 315 325 335 341 339 332 328 324 318 313
355 359 358 8 18 26 36 38 23 20 3 255 248 256 262 259 257 262 270 266 250 247 265 255 230 236 257 255 246 239 227 220 219 210 197 192 191 188 183 178 175 173 171 169 169 169 165 163 161 155 149 146 143 133 100 50 10 356 348 339 338 334 330 330 325 318 311 314 320 320 319 317 315 319 318 322 335 339 331 327 328 334 333 321 309
357 8 4 1 6 10 13 11 0 358 5 331 295 301 310 302 286 278 283 280 262 253 256 252 232 222 227 232 234 238 234 227 224 214 200 194 193 189 184 178 175 173 170 170 172 172 170 167 166 162 157 157 156 152 146 99 26 347 338 334 329 329 331 325 318 313 309 313 318 318 322 325 323 324 320 322 333 331 317 309 310 313 306 293 290
2 9 12 5 0 358 359 5 8 352 333 340 339 322 320 322 307 281 280 279 266 257 255 250 237 228 225 224 220 221 227 230 227 216 203 199 197 191 185 180 175 173 171 171 173 174 174 174 173 172 169 167 167 168 173 162 9 338 331 328 325 326 325 319 314 313 317 322 321 315 314 314 314 313 309 310 316 314 308 302 296 293 294 298 304
6 5 8 7 1 356 353 1 14 3 349 355 348 327 318 312 296 265 279 287 276 264 258 248 238 231 230 229 219 212 213 222 225 215 204 202 200 194 188 182 176 175 173 173 174 175 178 181 181 182 180 177 177 182 192 203 295 332 329 316 317 319 314 313 322 331 330 321 314 311 308 308 312 314 315 311 303 302 304 305 307 306 303 302 302
9 4 4 4 1 358 357 0 10 17 8 359 345 332 324 322 322 303 296 301 294 267 249 243 239 233 233 234 226 218 216 221 223 213 205 205 203 198 191 183 179 177 176 175 177 180 182 185 188 190 188 186 188 194 197 205 265 320 317 309 307 310 315 322 329 330 319 306 303 306 306 306 309 312 314 310 304 305 302 300 306 307 301 296 293
8 9 6 5 2 357 359 1 5 23 27 4 346 336 328 322 326 324 307 302 299 272 243 237 238 241 243 234 228 233 228 225 226 215 207 208 207 201 193 186 182 180 179 179 181 184 186 190 193 194 194 195 198 199 196 205 262 295 298 304 297 295 308 315 314 309 305 309 315 316 316 319 317 316 316 314 318 325 325 316 310 305 306 308 308
7 12 8 5 4 0 1 3 4 13 22 13 358 349 341 332 323 317 301 296 302 287 253 238 240 246 245 221 228 245 233 223 233 226 212 213 215 207 197 190 188 185 184 183 184 186 188 194 198 198 199 199 199 204 210 226 255 261 282 295 287 288 294 298 303 306 308 314 319 315 316 319 319 319 320 319 320 323 324 319 313 312 317 322 326
10 14 12 4 2 2 5 6 4 5 7 5 4 6 4 353 341 326 306 302 309 301 282 253 241 239 230 222 235 249 231 222 243 241 219 217 222 214 203 197 196 195 191 187 186 188 188 197 204 203 203 204 205 214 220 234 249 245 252 268 269 285 294 300 308 312 311 311 312 308 305 310 312 313 315 313 309 309 308 305 309 316 321 323 325
15 17 13 3 2 4 6 5 1 0 0 357 356 5 14 10 0 343 325 322 311 302 301 281 259 241 225 223 229 232 220 215 228 239 228 225 229 219 206 205 205 202 199 194 192 192 190 197 208 210 210 207 208 217 220 230 251 243 230 232 245 272 287 298 302 302 305 306 307 308 309 310 311 307 305 301 297 299 301 301 312 322 324 323 323
12 16 9 3 6 6 6 3 357 357 358 355 350 354 3 5 358 346 332 326 308 295 296 284 274 260 238 229 229 226 216 209 215 226 224 225 238 233 218 218 217 211 209 206 204 205 202 199 203 213 219 213 206 212 217 223 241 241 228 231 241 261 276 286 292 292 297 304 307 310 313 315 313 306 301 299 299 305 307 307 322 330 327 321 318
2 6 5 4 6 6 4 359 353 354 358 353 345 346 355 360 354 348 337 319 303 288 280 274 270 265 254 241 236 232 221 214 219 225 218 218 237 244 238 237 232 224 221 217 217 222 215 204 202 210 218 215 202 200 209 218 227 228 221 225 239 263 276 280 285 287 290 298 301 298 300 305 302 289 289 298 293 297 301 303 328 337 330 323 320
355 358 4 4 3 4 2 356 350 349 352 348 343 347 348 342 342 349 342 311 287 273 267 262 256 257 254 242 235 234 228 224 226 225 223 230 243 248 244 241 237 233 230 223 221 229 224 211 210 210 208 206 202 204 216 217 212 210 208 223 253 261 269 275 279 285 287 286 286 285 287 301 306 295 293 299 292 291 293 292 309 327 320 315 315
358 360 3 3 4 3 358 355 350 346 346 343 340 343 340 335 340 344 338 315 275 264 263 257 246 244 246 241 236 235 231 229 229 226 225 231 241 249 248 242 237 234 237 232 225 229 227 212 207 212 205 203 206 211 213 201 191 195 198 202 245 258 263 273 276 278 282 283 285 285 276 283 325 331 318 310 307 301 297 295 300 307 303 300 300
4 4 3 4 7 3 357 356 351 345 344 341 339 341 341 341 346 343 335 328 311 269 256 255 251 245 243 241 238 239 238 234 231 229 228 229 235 243 244 239 237 235 237 234 225 229 230 208 198 209 213 208 209 212 212 208 206 218 222 212 225 250 263 271 273 272 276 278 280 284 276 270 299 322 317 314 326 331 326 321 317 303 285 283 288
4 3 4 6 6 3 0 357 351 346 345 343 341 344 345 343 343 341 337 335 333 320 286 266 261 253 247 242 239 237 234 232 231 229 230 231 233 236 240 240 239 236 234 231 225 226 229 206 192 205 214 209 211 215 219 222 227 239 242 227 224 236 256 265 266 266 270 269 268 275 278 277 286 299 299 302 322 333 329 327 333 315 273 259 266
4 1 2 6 6 5 1 355 350 348 347 346 344 344 342 340 338 338 341 341 337 330 320 307 294 274 251 240 242 244 237 231 230 229 232 236 235 234 238 242 241 235 231 228 222 217 219 211 201 211 219 213 214 222 225 227 234 245 253 234 226 228 246 259 259 258 261 267 269 270 271 273 275 275 277 286 297 305 303 296 309 311 287 267 258
2 1 3 5 5 2 359 356 351 349 348 346 345 344 336 333 336 339 341 343 339 330 325 325 327 322 299 261 240 239 241 237 235 235 235 236 234 231 234 238 240 235 228 224 218 208 209 212 209 217 226 217 214 223 228 229 236 248 263 247 232 228 236 253 260 261 263 266 263 259 258 259 260 262 265 270 281 299 308 302 300 299 292 282 263
2 0 0 0 1 355 354 356 351 349 350 346 346 348 338 333 337 337 334 336 339 338 333 334 343 344 329 310 276 243 242 242 240 242 241 238 235 231 232 234 237 233 226 220 215 210 213 216 213 219 230 224 218 223 228 229 234 248 265 253 237 229 228 244 259 261 264 263 255 251 251 251 254 252 242 238 247 282 307 306 296 289 289 284 266
355 356 356 354 354 348 347 352 349 347 350 347 347 348 341 339 341 338 332 332 335 340 339 336 341 342 333 330 327 304 280 268 249 245 244 240 237 233 231 232 233 230 223 215 211 213 218 218 212 216 225 226 223 227 230 229 231 244 259 252 240 228 221 231 247 249 250 251 246 245 245 246 252 245 234 236 246 265 289 299 294 288 289 288 278
348 354 351 348 348 342 341 346 345 344 347 346 346 344 339 341 343 339 338 338 335 334 335 334 335 333 328 328 330 324 307 287 261 244 236 232 233 235 236 233 228 224 218 211 210 215 218 215 210 212 221 225 223 224 226 226 229 243 251 241 228 216 212 223 235 235 239 245 242 240 240 238 243 244 243 248 257 274 292 298 293 292 296 297 292
341 345 343 344 346 340 335 338 342 343 345 345 342 340 340 342 342 340 340 339 338 336 333 330 328 328 329 328 325 323 311 287 260 237 226 230 236 241 239 232 221 215 211 210 212 216 216 212 208 209 218 222 218 216 220 224 232 243 244 232 217 209 213 224 227 223 229 236 235 236 236 234 235 241 246 252 262 282 297 292 290 295 296 296 297
333 342 344 341 341 336 332 339 347 347 348 347 342 340 342 341 339 338 338 337 340 339 333 329 327 325 325 331 331 323 312 304 287 255 226 224 234 238 234 227 219 211 209 210 213 214 213 210 211 215 219 220 218 218 221 224 232 241 238 225 210 209 224 231 225 220 225 228 229 229 223 223 231 240 246 253 267 288 294 280 282 293 292 291 291
332 343 342 337 339 336 332 339 345 342 343 345 344 345 345 342 340 338 336 337 338 335 331 331 333 329 322 330 336 325 316 325 322 301 261 229 221 225 224 220 217 213 212 214 214 213 210 209 212 217 220 218 218 221 221 222 230 237 233 224 212 214 234 240 228 219 225 227 227 226 218 217 228 239 248 259 274 288 288 273 267 277 285 285 279
339 347 343 333 328 323 322 329 332 331 332 331 335 346 343 339 341 340 336 335 332 329 330 330 330 329 326 332 338 331 325 330 330 311 288 257 227 222 221 214 213 216 217 217 216 213 211 210 211 213 217 220 220 220 218 220 227 232 231 225 213 212 234 249 237 223 226 225 221 219 217 219 228 237 246 257 268 280 287 281 269 264 267 271 272
343 342 331 323 320 321 330 340 340 339 339 335 338 341 334 332 343 342 337 335 330 327 328 325 323 326 328 329 331 331 328 325 318 304 291 271 241 229 227 218 212 212 214 216 216 214 215 217 215 213 215 220 222 222 221 222 227 231 232 225 214 210 225 251 251 236 230 227 219 213 212 217 224 229 237 250 264 281 292 288 275 260 256 264 273
338 330 326 330 331 330 335 340 338 335 334 335 338 335 329 334 346 339 332 332 329 325 323 320 320 323 323 321 321 324 326 321 312 297 282 274 257 241 233 225 219 215 211 213 215 215 216 219 220 219 218 218 218 219 219 220 226 232 232 227 219 214 217 232 250 253 245 240 227 213 210 214 218 223 233 251 272 291 297 292 282 271 264 266 273
331 329 336 342 336 329 332 333 331 329 330 330 329 324 323 329 331 325 326 331 329 324 320 318 319 319 317 315 314 315 315 313 310 300 287 282 271 252 236 226 223 221 215 211 211 212 214 216 219 223 222 213 210 212 215 222 230 232 231 230 227 220 217 221 229 243 268 276 247 207 203 206 208 218 239 263 287 299 300 293 286 277 267 262 262
332 334 341 340 331 326 326 322 319 321 323 322 319 315 316 320 320 322 328 332 329 324 319 317 320 321 318 315 312 312 311 311 312 312 304 296 286 264 245 231 222 220 219 218 214 212 213 215 218 221 218 209 205 212 223 232 233 228 228 235 234 224 219 221 221 222 247 281 262 202 192 199 207 228 254 274 292 300 298 290 281 271 258 247 243
335 337 337 332 327 324 319 316 316 320 320 318 316 313 311 311 316 322 326 329 329 324 319 318 323 324 319 314 310 310 313 315 318 318 312 306 298 275 251 241 234 223 216 218 224 223 220 220 221 220 218 215 214 220 227 228 226 224 230 239 238 227 221 223 223 221 230 251 255 238 220 219 231 255 268 279 290 294 289 278 265 257 250 238 236
332 333 330 326 325 320 315 315 319 324 325 321 316 312 311 313 318 321 322 325 325 320 315 318 324 323 318 314 311 309 311 314 315 312 308 304 297 276 248 239 244 241 226 215 220 227 229 228 228 225 222 219 220 223 222 219 218 223 231 236 234 228 224 225 225 224 227 239 248 249 250 252 259 268 275 282 287 283 272 256 237 232 242 240 239
332 331 327 325 321 316 316 320 324 327 326 322 318 316 317 322 325 325 323 322 322 321 322 325 327 323 318 314 310 307 307 308 309 309 308 306 301 286 257 237 241 246 238 225 222 226 227 227 230 233 230 224 221 220 216 212 213 220 226 228 227 226 225 225 226 226 227 233 242 249 255 259 265 270 274 278 278 270 260 249 231 226 238 240 235
340 331 325 323 319 319 326 331 330 327 324 322 322 323 324 327 328 325 321 321 327 334 336 332 328 324 319 314 311 311 313 314 315 315 313 310 305 290 268 258 251 238 228 227 232 235 231 226 226 231 231 225 222 220 215 211 211 213 216 221 224 224 225 226 227 227 228 232 240 248 254 256 258 263 266 266 261 253 248 243 233 232 239 238 230
337 328 327 327 327 328 331 329 325 327 327 325 324 325 326 327 324 320 319 324 333 337 333 328 325 322 318 318 320 322 323 322 321 320 318 316 314 308 294 284 274 256 239 234 235 237 236 231 227 228 226 222 221 223 222 220 217 213 216 224 227 229 229 230 229 228 226 228 232 235 241 244 243 244 249 250 246 240 238 238 235 234 237 236 229
330 329 331 329 327 328 328 327 328 330 327 324 322 323 325 325 320 319 324 333 337 333 327 323 322 320 318 319 322 322 320 317 314 312 314 316 320 322 321 313 297 278 261 246 238 239 241 236 230 231 230 226 224 224 224 224 222 220 222 227 231 235 234 232 233 228 218 216 220 221 222 226 224 223 228 232 233 230 230 232 228 221 221 226 227
326 327 322 317 319 326 330 331 332 329 326 325 327 326 326 329 330 330 333 335 332 326 321 319 318 318 318 317 318 318 316 312 306 304 309 317 321 322 322 319 314 301 282 261 245 243 245 242 240 243 240 232 227 225 224 224 224 222 220 219 223 229 225 223 228 222 209 209 218 218 217 222 223 220 222 227 229 225 221 223 219 208 205 213 220